Location: Bern�tre
(50.1974°N, 2.0915°E)
Time: 04:03:55
(UTC+00:00)

USA 186 - Pass Details

Date: 18 September 2020
Orbit: 261 x 425 km, 96.9° (Epoch: 12 October)

Event Time Altitude Azimuth Distance (km) Brightness Sun altitude
Exits shadow 18:49:23 - 141° (SE) 1,605 4.2 -9.0°
Reaches altitude 10° 18:49:46 10° 139° (SE) 1,448 4.0 -9.1°
Maximum altitude 18:52:39 36° 71° (ENE) 676 2.4 -9.5°
Drops below altitude 10° 18:55:40 10° 3° (N) 1,517 4.7 -10.0°
Sets 18:57:49 0° 355° (N) 2,402 5.9 -10.3°
